Inverness, FL

7:51 PM EDT on July 20, 2017 (GMT -0400)
Inverness

Weather History for KINF - March, 2012

Change the Weather History Date:

Tuesday, March 6, 2012

  Actual Average (KBKV) Record (KBKV)
Temperature  
Mean Temperature 62 °F -  
Max Temperature 77 °F 73 °F 86 °F (2003)
Min Temperature 46 °F 49 °F 32 °F (2007)
Degree Days  
Heating Degree Days 4    
Growing Degree Days 12 (Base 50)    
Moisture  
Dew Point 48 °F    
Average Humidity 64    
Maximum Humidity 100    
Minimum Humidity 38    
Precipitation  
Precipitation 0.00 in - - ()
Sea Level Pressure  
Sea Level Pressure 30.41 in    
Wind  
Wind Speed 6 mph ()    
Max Wind Speed 17 mph    
Max Gust Speed 26 mph    
Visibility 10.0 miles    
Events      
Averages and records for this station are not official NWS values.
T = Trace of Precipitation, MM = Missing Value Source: Averaged Metar Reports

Daily Weather History Graph

Daily Weather History Graph

Search for Another Location

Airport or City:

Trip Planner

Search our weather history database for the weather conditions in past years. The results will help you decide how hot, cold, wet, or windy it might be!

Date:

Astronomy

Mar. 06, 2012 Rise Set
Actual Time 6:48 AM EST 6:32 PM EST
Civil Twilight 6:24 AM EST 6:56 PM EST
Nautical Twilight 5:57 AM EST 7:23 PM EST
Astronomical Twilight 5:30 AM EST 7:51 PM EST
Moon 5:01 PM EST (3/6) 5:16 AM EST (3/6)
Length of Visible Light 12h 31m
Length of Day
11h 44m
Waxing Gibbous, 96% of the Moon is Illuminated
Mar 6
Waxing Gibbous
Mar 8
Full
Mar 14
Last Quarter
Mar 22
New
Mar 30
First Quarter

Hourly Weather History & Observations

Time (EST) Temp. Dew Point Humidity Pressure Visibility Wind Dir Wind Speed Gust Speed Precip Events Conditions
12:15 AM 50.0 °F 48.2 °F 94% 30.38 in 10.0 mi Calm Calm - N/A   Clear
12:35 AM 50.0 °F 48.2 °F 94% 30.37 in 10.0 mi Calm Calm - N/A   Clear
12:55 AM 48.2 °F 46.4 °F 93% 30.37 in 10.0 mi Calm Calm - N/A   Clear
1:15 AM 48.2 °F 46.4 °F 93% 30.37 in 10.0 mi Calm Calm - N/A   Clear
1:35 AM 48.2 °F 46.4 °F 93% 30.37 in 10.0 mi Calm Calm - N/A   Clear
1:55 AM 46.4 °F 46.4 °F 100% 30.37 in 10.0 mi Calm Calm - N/A   Clear
2:15 AM 46.4 °F 46.4 °F 100% 30.36 in 10.0 mi Calm Calm - N/A   Clear
2:35 AM 48.2 °F 48.2 °F 100% 30.36 in 10.0 mi North 5.8 mph - N/A   Clear
2:55 AM 51.8 °F 50.0 °F 94% 30.36 in 10.0 mi North 6.9 mph - N/A   Clear
3:15 AM 51.8 °F 48.2 °F 88% 30.36 in 10.0 mi NNE 8.1 mph - N/A   Clear
3:35 AM 51.8 °F 46.4 °F 82% 30.36 in 10.0 mi NNE 8.1 mph - N/A   Clear
3:55 AM 51.8 °F 44.6 °F 76% 30.36 in 10.0 mi NNE 6.9 mph - N/A   Clear
4:15 AM 51.8 °F 44.6 °F 76% 30.36 in 10.0 mi NNE 6.9 mph - N/A   Clear
4:35 AM 51.8 °F 44.6 °F 76% 30.37 in 10.0 mi North 6.9 mph - N/A   Clear
4:55 AM 51.8 °F 44.6 °F 76% 30.38 in 10.0 mi NNE 4.6 mph - N/A   Clear
5:15 AM 50.0 °F 44.6 °F 82% 30.38 in 10.0 mi NNE 4.6 mph - N/A   Clear
5:35 AM 50.0 °F 44.6 °F 82% 30.39 in 10.0 mi NNE 3.5 mph - N/A   Clear
5:55 AM 50.0 °F 42.8 °F 76% 30.40 in 10.0 mi NNE 4.6 mph - N/A   Clear
6:15 AM 50.0 °F 42.8 °F 76% 30.40 in 10.0 mi NNE 4.6 mph - N/A   Clear
6:35 AM 50.0 °F 42.8 °F 76% 30.40 in 10.0 mi NNE 4.6 mph - N/A   Clear
6:55 AM 50.0 °F 42.8 °F 76% 30.41 in 10.0 mi North 3.5 mph - N/A   Clear
7:55 AM 53.6 °F 44.6 °F 72% 30.43 in 10.0 mi North 5.8 mph - N/A   Clear
8:15 AM 55.4 °F 44.6 °F 67% 30.43 in 10.0 mi NNE 6.9 mph - N/A   Clear
8:35 AM 59.0 °F 46.4 °F 63% 30.44 in 10.0 mi NE 8.1 mph - N/A   Clear
8:55 AM 60.8 °F 46.4 °F 59% 30.44 in 10.0 mi NE 8.1 mph - N/A   Clear
9:15 AM 64.4 °F 48.2 °F 56% 30.45 in 10.0 mi NE 8.1 mph - N/A   Clear
9:35 AM 68.0 °F 48.2 °F 49% 30.45 in 10.0 mi ENE 9.2 mph - N/A   Clear
9:55 AM 68.0 °F 48.2 °F 49% 30.45 in 10.0 mi ENE 12.7 mph 20.7 mph N/A   Clear
10:15 AM 71.6 °F 50.0 °F 46% 30.45 in 10.0 mi ENE 10.4 mph 17.3 mph N/A   Clear
10:35 AM 71.6 °F 46.4 °F 41% 30.45 in 10.0 mi ENE 16.1 mph 23.0 mph N/A   Clear
10:55 AM 73.4 °F 46.4 °F 38% 30.45 in 10.0 mi East 16.1 mph 20.7 mph N/A   Clear
11:15 AM 73.4 °F 48.2 °F 41% 30.44 in 10.0 mi East 12.7 mph 21.9 mph N/A   Scattered Clouds
11:35 AM 73.4 °F 48.2 °F 41% 30.44 in 10.0 mi East 11.5 mph 21.9 mph N/A   Mostly Cloudy
11:55 AM 73.4 °F 50.0 °F 44% 30.43 in 10.0 mi ENE 13.8 mph 19.6 mph N/A   Mostly Cloudy
12:15 PM 75.2 °F 50.0 °F 41% 30.43 in 10.0 mi ENE 15.0 mph 19.6 mph N/A   Mostly Cloudy
12:35 PM 73.4 °F 50.0 °F 44% 30.42 in 10.0 mi ENE 12.7 mph 21.9 mph N/A   Mostly Cloudy
12:55 PM 75.2 °F 50.0 °F 41% 30.42 in 10.0 mi East 17.3 mph 26.5 mph N/A   Mostly Cloudy
1:15 PM 75.2 °F 50.0 °F 41% 30.40 in 10.0 mi East 10.4 mph 25.3 mph N/A   Mostly Cloudy
1:35 PM 77.0 °F 50.0 °F 39% 30.40 in 10.0 mi ESE 11.5 mph 23.0 mph N/A   Mostly Cloudy
1:55 PM 75.2 °F 50.0 °F 41% 30.40 in 10.0 mi East 13.8 mph 18.4 mph N/A   Mostly Cloudy
2:35 PM 75.2 °F 50.0 °F 41% 30.39 in 10.0 mi East 11.5 mph 21.9 mph N/A   Scattered Clouds
2:55 PM 75.2 °F 48.2 °F 38% 30.38 in 10.0 mi ENE 12.7 mph 26.5 mph N/A   Mostly Cloudy
3:15 PM 73.4 °F 48.2 °F 41% 30.39 in 10.0 mi East 16.1 mph 21.9 mph N/A   Overcast
3:35 PM 73.4 °F 48.2 °F 41% 30.39 in 10.0 mi ENE 12.7 mph 20.7 mph N/A   Overcast
3:55 PM 73.4 °F 48.2 °F 41% 30.39 in 10.0 mi East 11.5 mph 20.7 mph N/A   Overcast
4:15 PM 73.4 °F 48.2 °F 41% 30.39 in 10.0 mi East 15.0 mph 21.9 mph N/A   Overcast
4:35 PM 71.6 °F 48.2 °F 43% 30.39 in 7.0 mi East 13.8 mph 24.2 mph N/A   Mostly Cloudy
4:55 PM 71.6 °F 50.0 °F 46% 30.40 in 10.0 mi East 17.3 mph 21.9 mph N/A   Scattered Clouds
5:15 PM 71.6 °F 48.2 °F 43% 30.39 in 10.0 mi East 12.7 mph 19.6 mph N/A   Scattered Clouds
5:35 PM 69.8 °F 50.0 °F 49% 30.39 in 10.0 mi East 10.4 mph 19.6 mph N/A   Scattered Clouds
5:55 PM 69.8 °F 50.0 °F 49% 30.40 in 10.0 mi East 10.4 mph 20.7 mph N/A   Clear
6:15 PM 68.0 °F 50.0 °F 52% 30.40 in 10.0 mi East 10.4 mph 18.4 mph N/A   Clear
6:35 PM 66.2 °F 50.0 °F 56% 30.41 in 10.0 mi East 10.4 mph - N/A   Clear
6:55 PM 66.2 °F 50.0 °F 56% 30.41 in 10.0 mi East 9.2 mph 17.3 mph N/A   Clear
7:55 PM 62.6 °F 51.8 °F 68% 30.42 in 10.0 mi East 5.8 mph - N/A   Clear
8:35 PM 62.6 °F 51.8 °F 68% 30.43 in 10.0 mi Calm Calm - N/A   Clear
9:15 PM 60.8 °F 51.8 °F 72% 30.44 in 10.0 mi Calm Calm - N/A   Scattered Clouds
9:35 PM 60.8 °F 51.8 °F 72% 30.45 in 10.0 mi Calm Calm - N/A   Clear
10:15 PM 59.0 °F 51.8 °F 77% 30.45 in 10.0 mi NE 3.5 mph - N/A   Mostly Cloudy
10:35 PM 59.0 °F 51.8 °F 77% 30.45 in 10.0 mi NNE 3.5 mph - N/A   Scattered Clouds
10:55 PM 57.2 °F 51.8 °F 82% 30.45 in 10.0 mi NE 4.6 mph - N/A   Clear
11:15 PM 57.2 °F 51.8 °F 82% 30.45 in 10.0 mi Calm Calm - N/A   Clear
11:55 PM 55.4 °F 51.8 °F 88% 30.44 in 10.0 mi Calm Calm - N/A   Clear